User: anonymous   Login
Location: Caltech
(34.1382°N, 118.1253°W)
Time: 18:08:48
(UTC-07:00)
Language:

ASTRO E2 - Orbit

View from above orbital plane
View from above orbital plane
View from above satellite
View from above satellite

Ground track
Ground track

The orbit data is extracted from the following two-line orbital elements,

1 28773U 05025A   15090.13645604  .00007461  00000-0  41827-3 0  9996
2 28773 031.3828 131.6858 0005379 167.4337 192.6443 15.12065822534600
Epoch (UTC): 31 March 2015 03:16:29
Eccentricity: 0.0005379
inclination: 31.3828°
perigee height: 526 km
apogee height: 533 km
right ascension of ascending node: 131.6858°
argument of perigee: 167.4337°
revolutions per day: 15.12065822
mean anomaly at epoch: 192.6443°
orbit number at epoch: 53460

The dashed part of the orbit path shows where the satellite is in the earth's shadow,  

DLR